Regional Weather Roundup
Issued by NWS Albany, NY

Home | Current Version | Previous Version | Text Only | Print | Product List | Glossary On
Versions: 1 2 3 4 5 6 7 8 9 10 11 12 13 14 15 16 17 18 19 20 21 22 23 24 25 26 27 28 29 30 31 32 33 34 35 36 37 38 39 40 41 42 43 44 45 46 47 48 49 50
000
ASUS41 KALY 181610
RWRALY

NEW YORK STATE HOURLY WEATHER ROUNDUP
NATIONAL WEATHER SERVICE ALBANY NY
1100 AM EST THU DEC 18 2014

NOTE: "FAIR" INDICATES FEW OR NO CLOUDS BELOW 12,000 FEET WITH NO
SIGNIFICANT WEATHER AND/OR NO OBSTRUCTIONS TO VISIBILITY.

NYZ032-033-038>043-046>054-057>066-NYZ062>081-181700-
EAST


CITY           SKY/WX    TMP DP  RH WIND       PRES   REMARKS
ALBANY         CLOUDY    36  26  67 NW14G25   29.94R WCI  27
GLENS FALLS    CLOUDY    38  26  62 W5        29.88S WCI  34
POUGHKEEPSIE   PTSUNNY   41  24  51 W10       29.93F
NEWBURGH       PTSUNNY   36  25  64 NW23G35   29.94S WCI  24
MONTGOMERY     CLOUDY    38  24  57 NW16G25   29.94F WCI  29
WHITE PLAINS   PTSUNNY   39  23  52 NW13G24   29.94S WCI  31
ISLIP          MOSUNNY   41  24  51 W20G28    29.93F
NEW YORK CITY  PTSUNNY   40  25  55 NW15G25   29.98F WCI  32
CENTRAL PARK   CLOUDY    41  22  46 W8G17     30.00F
$$

NYZ005>009-017-018-044>046-055-056-181700-
CENTRAL


CITY           SKY/WX    TMP DP  RH WIND       PRES   REMARKS
FULTON         CLOUDY    33  27  78 W13       30.02S WCI  24
SYRACUSE       LGT SNOW  31  30  96 W14       30.01F FOG     WCI  21
ROME           CLOUDY    32  29  88 W18G24    29.99F WCI  20
ELMIRA         CLOUDY    33  26  75 VRB6      30.03F WCI  28
BINGHAMTON     CLOUDY    29  24  82 NW14G23   29.96F WCI  18
MONTICELLO     CLOUDY    30  23  74 NW14G28   29.95F WCI  20
$$

NYZ026>034-041>043-181700-
NORTH


CITY           SKY/WX    TMP DP  RH WIND       PRES   REMARKS
WATERTOWN      CLOUDY    32  23  69 W12       30.01S WCI  23
FORT DRUM      NOT AVBL
MASSENA        LGT SNOW  31  27  85 W14       29.95S FOG     WCI  21
SARANAC LAKE   LGT SNOW  27  24  89 W13G21    29.83F FOG     WCI  16
PLATTSBURGH    CLOUDY    35  29  78 W5        29.86S WCI  31
$$

NYZ001>004-010>016-019>021-181700-
WEST


CITY           SKY/WX    TMP DP  RH WIND       PRES   REMARKS
NIAGARA FALLS  CLOUDY    32  26  78 NW13      30.09S WCI  22
BUFFALO        FLURRIES  31  27  85 W8        30.09F WCI  23
DUNKIRK        CLOUDY    32  27  81 W8G17     30.12F WCI  25
JAMESTOWN      CLOUDY    28  23  80 W10G17    30.06F WCI  19
WELLSVILLE     CLOUDY    27  24  89 NW16G22   30.02S WCI  15
ROCHESTER      CLOUDY    33  27  78 NW12      30.06S WCI  24
PENN YAN       CLOUDY    32  26  78 W10       30.03F WCI  24
$$

             KEY
       WCI = WIND CHILL INDEX
       VSB = VISIBILITY
       HX  = HEAT INDEX
$$


USA.gov is the U.S. government's official web portal to all federal, state and local government web resources and services.